Weather History for KMPV - December, 2011

Change the Weather History Date:

Saturday, December 17, 2011

  Actual Average Record
Temperature  
Mean Temperature 20 °F 22 °F  
Max Temperature 31 °F 31 °F 56 °F (1984)
Min Temperature 8 °F 14 °F -20 °F (2013)
Degree Days  
Heating Degree Days 45 43  
Month to date heating degree days 558 670  
Since 1 July heating degree days 1966 2516  
Cooling Degree Days 0 0  
Month to date cooling degree days 0  
Year to date cooling degree days 264  
Moisture  
Dew Point 15 °F    
Average Humidity 77    
Maximum Humidity 92    
Minimum Humidity 62    
Precipitation  
Precipitation 0.01 in 0.09 in 2.62 in (2000)
Month to date precipitation 1.07 1.64  
Year to date precipitation 52.27 36.17  
Sea Level Pressure  
Sea Level Pressure 30.14 in    
Wind  
Wind Speed 6 mph (NNW)    
Max Wind Speed 14 mph    
Max Gust Speed 18 mph    
Visibility 8 miles    
Events Snow    
T = Trace of Precipitation, MM = Missing Value Source: NWS Daily Summary

Daily Weather History Graph

Daily Weather History Graph

Search for Another Location

Airport or City:

Trip Planner

Search our weather history database for the weather conditions in past years. The results will help you decide how hot, cold, wet, or windy it might be!

Date:

Astronomy

Dec. 17, 2011 Rise Set
Actual Time 7:19 AM EST 4:12 PM EST
Civil Twilight 6:46 AM EST 4:45 PM EST
Nautical Twilight 6:10 AM EST 5:22 PM EST
Astronomical Twilight 5:34 AM EST 5:57 PM EST
Moon No Moon Rise 11:19 AM EST (12/17)
Length of Visible Light 9h 59m
Length of Day
8h 52m
Waning Gibbous, 54% of the Moon is Illuminated
Dec 17
Waning Gibbous
Dec 17
Last Quarter
Dec 24
New
Jan 1
First Quarter
Jan 9
Full

Hourly Weather History & Observations

Time (EST) Temp. Windchill Dew Point Humidity Pressure Visibility Wind Dir Wind Speed Gust Speed Precip Events Conditions
12:51 AM 30.9 °F - 26.1 °F 82% 30.04 in 8.0 mi Calm Calm - 0.00 in Snow Light Snow
1:09 AM 30.2 °F 25.4 °F 26.6 °F 86% 30.00 in 7.0 mi NNW 4.6 mph - 0.00 in Snow Light Snow
1:51 AM 28.9 °F - 26.1 °F 89% 30.05 in 6.0 mi Calm Calm - 0.00 in Snow Light Snow
2:10 AM 28.4 °F 23.3 °F 26.6 °F 93% 30.01 in 5.0 mi NNW 4.6 mph - 0.00 in Snow Light Snow
2:31 AM 28.4 °F 23.3 °F 26.6 °F 93% 30.01 in 3.0 mi North 4.6 mph - 0.00 in Snow Light Snow
2:51 AM 28.0 °F 21.7 °F 26.1 °F 92% 30.06 in 4.0 mi NNW 5.8 mph - 0.01 in Snow Light Snow
3:28 AM 26.6 °F 19.1 °F 24.8 °F 93% 30.02 in 7.0 mi NW 6.9 mph - 0.00 in Snow Light Snow
3:51 AM 27.0 °F 19.5 °F 24.1 °F 89% 30.08 in 3.0 mi NW 6.9 mph - 0.00 in Snow Light Snow
3:53 AM 26.6 °F 20.0 °F 24.8 °F 93% 30.03 in 2.5 mi Variable 5.8 mph - 0.00 in Snow Light Snow
4:00 AM 26.6 °F 19.1 °F 24.8 °F 93% 30.03 in 2.5 mi NW 6.9 mph - 0.00 in Snow Light Snow
4:07 AM 26.6 °F 16.8 °F 23.0 °F 86% 30.04 in 3.0 mi NW 10.4 mph 16.1 mph 0.00 in Snow Light Snow
4:15 AM 26.6 °F 18.2 °F 23.0 °F 86% 30.04 in 4.0 mi NW 8.1 mph - 0.00 in Snow Light Snow
4:51 AM 26.1 °F 19.4 °F 21.9 °F 84% 30.10 in 6.0 mi NNW 5.8 mph - 0.00 in Snow Light Snow
5:51 AM 24.1 °F 18.2 °F 19.9 °F 84% 30.12 in 10.0 mi NW 4.6 mph - 0.00 in   Overcast
6:51 AM 23.0 °F 12.4 °F 18.0 °F 81% 30.14 in 10.0 mi North 10.4 mph - N/A   Overcast
7:51 AM 21.2 °F 11.7 °F 17.6 °F 86% 30.12 in 6.0 mi NW 8.1 mph - N/A Snow Light Snow
8:51 AM 21.0 °F 11.4 °F 12.0 °F 68% 30.19 in 10.0 mi NNW 8.1 mph - N/A   Mostly Cloudy
9:05 AM 21.2 °F 11.7 °F 12.2 °F 68% 30.14 in 10.0 mi NW 8.1 mph - N/A   Scattered Clouds
9:42 AM 21.2 °F 10.9 °F 12.2 °F 68% 30.14 in 10.0 mi NNW 9.2 mph - N/A   Mostly Cloudy
9:51 AM 21.0 °F 9.9 °F 12.0 °F 68% 30.20 in 10.0 mi NNW 10.4 mph - N/A   Mostly Cloudy
10:21 AM 21.2 °F 10.1 °F 10.4 °F 63% 30.15 in 10.0 mi WNW 10.4 mph - N/A   Scattered Clouds
10:51 AM 21.9 °F 11.7 °F 10.0 °F 60% 30.20 in 10.0 mi WNW 9.2 mph 16.1 mph N/A   Clear
11:51 AM 21.9 °F 10.4 °F 10.9 °F 63% 30.17 in 10.0 mi NW 11.5 mph 18.4 mph N/A   Clear
12:51 PM 21.9 °F 11.7 °F 10.9 °F 63% 30.17 in 10.0 mi NNW 9.2 mph - N/A   Clear
1:51 PM 21.0 °F 11.4 °F 10.9 °F 65% 30.19 in 10.0 mi WNW 8.1 mph - N/A   Overcast
2:25 PM 19.4 °F 8.6 °F 10.4 °F 68% 30.13 in 10.0 mi NW 9.2 mph - N/A   Overcast
2:51 PM 19.0 °F 8.2 °F 10.0 °F 68% 30.20 in 9.0 mi NW 9.2 mph - 0.00 in Snow Light Snow
3:18 PM 17.6 °F 8.2 °F 10.4 °F 73% 30.15 in 10.0 mi NW 6.9 mph 16.1 mph 0.00 in   Overcast
3:51 PM 17.1 °F 5.0 °F 8.1 °F 68% 30.23 in 10.0 mi NW 10.4 mph - 0.00 in   Mostly Cloudy
4:51 PM 15.1 °F 4.2 °F 7.0 °F 70% 30.25 in 10.0 mi NNW 8.1 mph - N/A   Scattered Clouds
5:51 PM 14.0 °F 5.1 °F 7.0 °F 74% 30.27 in 10.0 mi NNW 5.8 mph - N/A   Clear
6:51 PM 12.9 °F 6.9 °F 6.1 °F 74% 30.28 in 10.0 mi NE 3.5 mph - N/A   Clear
7:51 PM 12.0 °F 2.7 °F 5.0 °F 73% 30.28 in 10.0 mi North 5.8 mph - N/A   Clear
8:51 PM 10.9 °F - 5.0 °F 77% 30.28 in 10.0 mi Calm Calm - N/A   Clear
9:51 PM 10.9 °F - 5.0 °F 77% 30.28 in 10.0 mi Calm Calm - N/A   Clear
10:51 PM 10.9 °F 4.7 °F 5.0 °F 77% 30.28 in 10.0 mi NNE 3.5 mph - N/A   Clear
11:51 PM 9.0 °F - 5.0 °F 84% 30.27 in 10.0 mi Calm Calm - N/A   Clear